Location: Hiram
(41.3130°N, 81.1440°W)
Time: 09:27:57
(UTC-04:00)

Daily predictions for brighter satellites

Satellite Brightness Start Highest point End
(mag) Time Altitude Azimuth Time Altitude Azimuth Time Altitude Azimuth
Meteor 2-16 Rocket 4.5 20:23:08 10° S 20:29:05 60° E 20:35:03 10° NNE
OTV 4 1.6 20:28:09 10° WSW 20:30:51 32° SSW 20:33:32 10° SE
Meteor 1-28 Rocket 4.3 20:27:10 10° N 20:30:52 51° WNW 20:34:32 10° SSW
FENGYUN 3A 3.8 20:31:44 10° SSE 20:36:57 57° ENE 20:42:11 10° N
CZ-2D R/B 3.6 20:34:04 10° SSE 20:37:47 47° ENE 20:41:32 10° N
Cosmos 1656 4.3 20:34:37 10° SSE 20:39:36 33° ESE 20:44:33 10° NE
FengYun 1-2 T 4.3 20:34:16 10° SSE 20:39:54 88° ENE 20:45:33 10° NNW
Cosmos 2227 Rocket 2.2 20:37:33 10° NNW 20:43:13 71° ENE 20:48:50 10° SSE
Cosmos 1821 Rocket 4.1 20:38:00 10° S 20:44:05 84° W 20:50:13 10° N
Tiangong 1 1.3 20:41:09 10° W 20:44:15 63° N 20:47:19 10° E
Helios 1A 3.9 20:40:13 10° S 20:44:16 51° W 20:48:22 10° NNW
Cosmos 1605 Rocket 4.1 20:41:00 10° S 20:47:12 60° E 20:53:22 10° NNE
Cosmos 1500 4.4 20:47:32 10° SE 20:50:30 23° E 20:53:30 10° NE
ERS-1 Rocket 3.9 20:48:16 10° SE 20:52:36 30° ENE 20:56:57 10° N
Cosmos 1939 Rocket 4.4 20:49:57 12° ESE 20:52:40 21° ENE 20:55:48 10° NNE
Lacrosse 5 2.9 20:48:05 10° NNW 20:52:43 34° NNE 20:56:52 12° E
Cosmos 1461 2.9 20:51:38 10° NW 20:55:41 74° WSW 20:59:35 10° SSE
DELTA 2 R/B (1) 3.7 20:51:28 10° W 20:57:00 66° SSW 21:01:40 15° ESE
Cosmos 1346 Rocket 3.0 20:53:06 10° NNW 20:57:03 74° W 21:01:02 10° S
Cosmos 2082 3.7 20:52:38 10° NNW 20:58:18 87° ENE 21:03:55 10° SSE
Cosmos 2297 Rocket 2.2 20:52:51 10° NNW 20:58:31 68° ENE 21:04:07 10° SSE
Meteor 1-5 Rocket 4.4 20:53:18 10° SSW 20:58:38 75° W 21:04:08 10° N
SPOT 5 4.5 21:00:32 13° E 21:02:58 19° ENE 21:06:15 10° NNE
Cosmos 1898 Rocket 4.0 20:58:40 10° N 21:03:44 43° ENE 21:07:49 15° SE
H-2A R/B 3.6 21:03:38 15° E 21:05:17 18° ENE 21:08:08 10° NNE
Cosmos 1626 Rocket 3.5 21:03:51 10° N 21:08:15 67° E 21:12:34 10° SSE
Cosmos 1455 Rocket 3.9 21:08:25 10° SSW 21:12:38 53° W 21:16:55 10° N
Cosmos 1515 3.8 21:10:02 10° N 21:13:49 53° E 21:16:39 16° SSE
Cosmos 2123 Rocket 4.4 21:10:45 10° NNW 21:16:52 68° W 21:22:59 10° S
Cosmos 1602 Rocket 3.5 21:13:05 10° N 21:17:34 86° E 21:22:00 10° S
RESURS DK-1 3.2 21:14:54 10° N 21:18:42 34° ENE 21:20:28 24° ESE
Cosmos 468 Rocket 4.0 21:14:21 10° S 21:19:17 52° ESE 21:24:17 10° NNE
Cosmos 2084 3.4 21:17:34 10° NNW 21:21:37 65° NE 21:23:56 25° SE
CZ-4 DEB 2.7 21:22:56 28° SE 21:24:23 61° ENE 21:27:30 10° N
SJ-11-01 4.3 21:20:46 16° SSE 21:24:29 64° ENE 21:29:08 10° N
Cosmos 841 Rocket 4.5 21:24:57 23° ESE 21:26:12 25° E 21:30:26 10° NE
Cosmos 1743 3.3 21:26:39 28° SE 21:27:49 35° E 21:31:25 10° NNE
Cosmos 1459 Rocket 4.1 21:22:19 10° SSE 21:28:06 50° E 21:33:58 10° NNE
Cosmos 220 Rocket 4.1 21:24:23 10° NNW 21:28:35 70° WSW 21:31:56 16° S
Cosmos 1814 Rocket 4.1 21:24:32 10° S 21:29:44 56° ESE 21:34:56 10° NNE
SL-24 R/B - RUBIN 2 4.4 21:26:34 10° SSW 21:32:26 85° WNW 21:38:59 10° NNE
Cosmos 1066 Rocket 4.2 21:28:02 10° N 21:33:43 73° E 21:38:15 17° SSE
Cosmos 1697 Rocket 2.6 21:29:19 10° SSW 21:34:56 73° ESE 21:40:34 10° NNE
OAO 2 Rocket 3.9 21:31:58 10° WSW 21:36:41 41° S 21:38:28 30° SE
SL-16 R/B 4.1 21:46:17 13° ENE 21:46:17 13° ENE 21:47:24 10° ENE
Cosmos 2058 Rocket 4.2 21:45:01 27° ENE 21:45:01 27° ENE 21:48:19 10° NNE
Cosmos 858 Rocket 4.5 21:41:37 10° NNW 21:46:56 87° WSW 21:49:56 27° SSE
ALOS 4.3 21:44:37 10° SSW 21:48:31 26° W 21:52:27 10° NW
Cosmos 1606 Rocket 3.7 21:50:21 44° SE 21:51:11 51° E 21:55:29 10° NNE
ASTEX 1 3.8 21:47:06 10° NNE 21:51:52 43° E 21:52:42 39° ESE
Cosmos 1975 4.4 21:48:41 10° SW 21:52:29 36° WNW 21:56:19 10° N
ARGOS 4.0 21:53:32 29° E 21:54:29 31° ENE 21:59:11 10° N
Cosmos 1842 4.3 21:52:19 10° NNE 21:55:11 30° NE 21:55:11 30° NE
Cosmos 1980 Rocket 2.1 21:52:22 10° SSW 21:57:58 68° ESE 22:03:39 10° NNE
Lacrosse 5 rocket 2.9 21:57:49 10° WNW 22:00:39 21° SW 22:01:42 19° SSW
Cosmos 1802 Rocket 4.0 21:55:57 11° S 22:02:06 80° E 22:08:33 10° N
Envisat 3.0 22:00:25 29° S 22:03:03 78° WSW 22:08:09 10° NNW
Cosmos 1937 Rocket 3.6 22:01:49 10° NNW 22:07:05 73° WSW 22:09:16 36° S
MetOp-B 4.1 22:07:39 48° SE 22:09:02 66° ENE 22:14:21 10° N
Cosmos 1726 Rocket 3.4 22:14:23 76° SE 22:14:37 79° E 22:19:02 10° N
Cosmos 1666 3.9 22:16:27 32° NNE 22:16:27 32° NNE 22:18:40 10° NNE
Cosmos 2016 Rocket 3.8 22:11:10 24° S 22:15:01 84° E 22:21:15 10° N
H-2A R/B 3.3 22:17:51 24° ENE 22:17:51 24° ENE 22:21:19 10° NNE
Cosmos 990 Rocket 4.0 22:14:21 10° NNW 22:19:36 77° WSW 22:20:54 51° S
Meteor 1-15 Rocket 4.4 22:19:19 53° ESE 22:19:59 56° E 22:25:43 10° NNE
Tiangong 1 3.0 22:17:43 10° WNW 22:19:22 28° W 22:19:22 28° W
CZ-4B R/B 4.4 22:18:15 10° NNE 22:21:05 30° NE 22:21:05 30° NE
Cosmos 2263 Rocket 3.4 22:20:37 10° N 22:25:15 26° NE 22:25:29 26° ENE
Cosmos 1939 Rocket 4.5 22:25:54 25° SW 22:27:23 32° W 22:31:10 10° NNW
Cosmos 1825 Rocket 4.4 22:24:25 10° NNW 22:28:40 48° W 22:29:39 40° SW
Cosmos 2322 Rocket 3.0 22:32:37 35° ENE 22:32:37 35° ENE 22:36:10 10° NE
ERS-1 Rocket 4.5 22:28:09 17° SSW 22:31:17 31° W 22:35:46 10° NW
Cosmos 2098 Rocket 3.9 22:29:39 36° S 22:32:45 87° E 22:38:38 10° N
SL-08 RB Rocket 4.2 22:33:41 49° NE 22:33:41 49° NE 22:37:29 10° N
Cosmos 836 Rocket 4.4 22:34:20 74° E 22:34:20 74° E 22:39:27 10° NNE
BREEZE-M DEB (TANK) 4.4 22:30:34 10° WNW 22:34:58 83° NNE 22:39:15 40° ESE
Lacrosse 5 2.4 22:30:58 10° NW 22:35:49 48° SW 22:36:04 47° SW
SPOT 1/Viking Rocket 3.4 22:36:08 78° E 22:36:17 79° ENE 22:41:31 10° N
Cosmos 1340 3.9 22:33:27 10° NNW 22:36:49 39° W 22:36:49 39° W
YAOGAN 6 3.8 22:38:50 42° NW 22:38:50 42° NW 22:41:33 10° NNW
Cosmos 1953 Rocket 4.2 22:34:39 10° NNW 22:38:59 51° W 22:39:18 50° WSW
SPOT 5 3.4 22:39:47 47° SW 22:40:40 54° W 22:45:25 10° NNW
H-2A R/B 3.1 22:40:46 36° WSW 22:41:01 37° W 22:44:52 10° NNW
Meteor 2-9 Rocket 4.1 22:41:32 67° SSW 22:42:18 84° W 22:47:45 10° N
Cosmos 2360 4.3 22:38:33 22° SSW 22:42:23 75° WNW 22:48:09 10° NNE
USA 245 4.4 22:41:37 61° S 22:42:51 85° WSW 22:49:15 10° NNW
Cosmos 1864 Rocket 4.3 22:41:44 57° S 22:43:07 89° WNW 22:49:16 10° N
Cosmos 1763 Rocket 4.1 22:41:43 19° SW 22:45:12 52° WNW 22:50:10 10° N
Cosmos 2227 4.5 22:43:45 10° NNW 22:49:24 60° WSW 22:50:02 56° SW
Tsikada Rocket 4.0 22:43:51 10° N 22:50:19 83° W 22:51:23 64° S
Cosmos 1125 Rocket 3.6 22:46:54 10° NNW 22:51:36 72° N 22:51:36 72° N
Cosmos 2228 4.2 22:54:37 37° N 22:54:37 37° N 22:57:19 10° N
USA 215 3.4 23:03:14 55° ENE 23:04:09 60° NE 23:10:34 10° NW
Terra 3.0 23:11:26 36° N 23:11:26 36° N 23:14:23 10° N
SL-16 R/B 2.8 23:28:05 55° NNW 23:28:05 55° NNW 23:32:50 10° NNE
ARGOS 4.4 23:35:03 34° W 23:35:03 34° W 23:39:30 10° NNW
Cosmos 1844 Rocket 4.5 23:33:14 10° N 23:36:28 22° NE 23:36:28 22° NE
BREEZE-M DEB (TANK) 4.2 23:31:59 10° W 23:38:01 40° WNW 23:38:01 40° WNW
Cosmos 2360 Rocket 3.9 23:45:50 24° NNE 23:45:50 24° NNE 23:47:57 10° NNE
